Dumas, TX

9:45 PM CDT on March 27, 2017 (GMT -0500)
Moore County

Weather History for KDUX - October, 2013

Change the Weather History Date:

Saturday, October 19, 2013

  Actual Average (KDHT) Record (KDHT)
Temperature  
Mean Temperature 46 °F -  
Max Temperature 63 °F 68 °F 90 °F (2009)
Min Temperature 30 °F 38 °F 22 °F (1989)
Degree Days  
Heating Degree Days 18    
Moisture  
Dew Point 26 °F    
Average Humidity 57    
Maximum Humidity 88    
Minimum Humidity 23    
Precipitation  
Precipitation 0.00 in - - ()
Sea Level Pressure  
Sea Level Pressure 30.12 in    
Wind  
Wind Speed 9 mph (WSW)    
Max Wind Speed 22 mph    
Max Gust Speed 28 mph    
Visibility 10 miles    
Events      
Averages and records for this station are not official NWS values.
T = Trace of Precipitation, MM = Missing Value Source: NWS Daily Summary

Daily Weather History Graph

Daily Weather History Graph

Search for Another Location

Airport or City:

Trip Planner

Search our weather history database for the weather conditions in past years. The results will help you decide how hot, cold, wet, or windy it might be!

Date:

Astronomy

Oct. 19, 2013 Rise Set
Actual Time 7:58 AM CDT 7:06 PM CDT
Civil Twilight 7:32 AM CDT 7:32 PM CDT
Nautical Twilight 7:02 AM CDT 8:02 PM CDT
Astronomical Twilight 6:33 AM CDT 8:32 PM CDT
Moon 7:38 PM CDT (10/19) 8:36 AM CDT (10/19)
Length of Visible Light 12h 00m
Length of Day
11h 08m
Waxing Gibbous, 99% of the Moon is Illuminated
Oct 19
Waxing Gibbous
Oct 26
Last Quarter
Nov 3
New
Nov 9
First Quarter
Nov 17
Full

Hourly Weather History & Observations

Time (CDT) Temp. Windchill Dew Point Humidity Pressure Visibility Wind Dir Wind Speed Gust Speed Precip Events Conditions
12:15 AM 30.2 °F 23.4 °F 26.6 °F 86% 30.22 in 10.0 mi West 6.9 mph - N/A   Clear
12:35 AM 30.2 °F 22.6 °F 26.6 °F 86% 30.22 in 10.0 mi WSW 8.1 mph - N/A   Clear
12:55 AM 31.1 °F 23.7 °F 27.5 °F 87% 30.22 in 10.0 mi West 8.1 mph - N/A   Clear
1:15 AM 32.0 °F 24.2 °F 28.2 °F 86% 30.22 in 10.0 mi WSW 9.2 mph - N/A   Clear
1:35 AM 31.8 °F 25.4 °F 28.0 °F 86% 30.22 in 10.0 mi WSW 6.9 mph - N/A   Clear
1:55 AM 30.9 °F 24.3 °F 27.3 °F 86% 30.22 in 10.0 mi WSW 6.9 mph - N/A   Clear
2:15 AM 30.6 °F 23.8 °F 27.3 °F 88% 30.22 in 10.0 mi WSW 6.9 mph - N/A   Clear
2:35 AM 31.6 °F 24.4 °F 28.0 °F 87% 30.22 in 10.0 mi WSW 8.1 mph - N/A   Clear
2:55 AM 31.5 °F 23.5 °F 27.9 °F 87% 30.22 in 10.0 mi WSW 9.2 mph - N/A   Clear
3:15 AM 32.0 °F 24.2 °F 27.9 °F 85% 30.21 in 10.0 mi WSW 9.2 mph - N/A   Clear
3:35 AM 31.5 °F 22.9 °F 27.5 °F 85% 30.21 in 10.0 mi West 10.4 mph - N/A   Clear
3:55 AM 30.9 °F 23.5 °F 27.1 °F 86% 30.21 in 10.0 mi West 8.1 mph - N/A   Clear
4:15 AM 31.3 °F 22.1 °F 27.5 °F 86% 30.20 in 10.0 mi West 11.5 mph - N/A   Clear
4:35 AM 31.5 °F 22.3 °F 27.3 °F 85% 30.20 in 10.0 mi West 11.5 mph - N/A   Clear
4:55 AM 31.1 °F 23.1 °F 27.3 °F 86% 30.20 in 10.0 mi West 9.2 mph - N/A   Clear
5:15 AM 31.1 °F 23.1 °F 27.3 °F 86% 30.19 in 10.0 mi West 9.2 mph - N/A   Clear
5:35 AM 31.6 °F 23.7 °F 27.5 °F 85% 30.19 in 10.0 mi West 9.2 mph - N/A   Clear
5:55 AM 31.1 °F 23.1 °F 27.3 °F 86% 30.19 in 10.0 mi WSW 9.2 mph - N/A   Clear
6:15 AM 32.0 °F 23.6 °F 27.7 °F 84% 30.18 in 10.0 mi WSW 10.4 mph - N/A   Clear
6:35 AM 32.0 °F 23.0 °F 27.7 °F 84% 30.18 in 10.0 mi WSW 11.5 mph - N/A   Clear
6:55 AM 31.8 °F 23.3 °F 27.5 °F 84% 30.19 in 10.0 mi WSW 10.4 mph - N/A   Clear
7:15 AM 30.9 °F 22.2 °F 27.1 °F 86% 30.19 in 10.0 mi WSW 10.4 mph - N/A   Clear
7:35 AM 30.0 °F 21.7 °F 27.0 °F 88% 30.18 in 10.0 mi WSW 9.2 mph - N/A   Clear
7:55 AM 30.6 °F 21.8 °F 27.1 °F 87% 30.17 in 10.0 mi WSW 10.4 mph - N/A   Clear
8:15 AM 31.1 °F 22.4 °F 27.3 °F 86% 30.17 in 10.0 mi WSW 10.4 mph - N/A   Clear
8:35 AM 32.4 °F 22.5 °F 27.9 °F 83% 30.17 in 10.0 mi WSW 13.8 mph - N/A   Clear
8:55 AM 34.0 °F 24.2 °F 28.6 °F 81% 30.18 in 10.0 mi West 15.0 mph - N/A   Clear
9:15 AM 36.9 °F 27.5 °F 29.8 °F 76% 30.19 in 10.0 mi West 16.1 mph - N/A   Clear
9:35 AM 39.6 °F 31.0 °F 30.9 °F 71% 30.19 in 10.0 mi West 16.1 mph - N/A   Clear
9:55 AM 41.9 °F 33.1 °F 30.7 °F 65% 30.20 in 10.0 mi West 19.6 mph - N/A   Clear
10:15 AM 43.9 °F 35.9 °F 30.9 °F 60% 30.19 in 10.0 mi West 18.4 mph 21.9 mph N/A   Clear
10:35 AM 46.4 °F 39.0 °F 30.7 °F 54% 30.19 in 10.0 mi West 19.6 mph - N/A   Clear
10:55 AM 48.0 °F - 30.0 °F 50% 30.19 in 10.0 mi WSW 20.7 mph 25.3 mph N/A   Clear
11:15 AM 49.5 °F - 27.7 °F 43% 30.18 in 10.0 mi WSW 20.7 mph 27.6 mph N/A   Clear
11:35 AM 51.1 °F - 25.3 °F 37% 30.18 in 10.0 mi WSW 21.9 mph - N/A   Clear
11:55 AM 51.8 °F - 25.3 °F 36% 30.17 in 10.0 mi WSW 20.7 mph - N/A   Clear
1:55 PM 58.6 °F - 26.2 °F 29% 30.11 in 10.0 mi WSW 13.8 mph 20.7 mph N/A   Clear
2:15 PM 58.8 °F - 27.1 °F 30% 30.10 in 10.0 mi SW 12.7 mph 19.6 mph N/A   Clear
2:35 PM 59.7 °F - 27.3 °F 29% 30.08 in 10.0 mi SW 12.7 mph - N/A   Clear
2:55 PM 61.2 °F - 27.1 °F 27% 30.07 in 10.0 mi SW 10.4 mph 17.3 mph N/A   Clear
3:15 PM 61.3 °F - 27.3 °F 27% 30.07 in 10.0 mi SW 11.5 mph - N/A   Clear
3:35 PM 61.9 °F - 27.0 °F 27% 30.06 in 10.0 mi SW 9.2 mph - N/A   Clear
3:55 PM 61.9 °F - 25.9 °F 25% 30.05 in 10.0 mi SW 9.2 mph - N/A   Clear
4:15 PM 62.6 °F - 25.9 °F 25% 30.05 in 10.0 mi SSW 8.1 mph 17.3 mph N/A   Clear
4:35 PM 62.4 °F - 25.5 °F 25% 30.03 in 10.0 mi SSW 10.4 mph - N/A   Clear
4:55 PM 62.6 °F - 25.2 °F 24% 30.03 in 10.0 mi WSW 11.5 mph - N/A   Clear
5:15 PM 63.3 °F - 25.5 °F 24% 30.02 in 10.0 mi SSW 10.4 mph - N/A   Clear
5:35 PM 63.0 °F - 25.0 °F 24% 30.02 in 10.0 mi SSW 9.2 mph - N/A   Clear
5:55 PM 62.6 °F - 25.0 °F 24% 30.01 in 10.0 mi SW 8.1 mph - N/A   Clear
6:15 PM 62.6 °F - 24.4 °F 23% 30.01 in 10.0 mi SW 6.9 mph - N/A   Clear
6:35 PM 61.3 °F - 23.7 °F 24% 30.01 in 10.0 mi SW 4.6 mph - N/A   Clear
6:55 PM 58.5 °F - 23.2 °F 26% 30.01 in 10.0 mi WSW 4.6 mph - N/A   Clear
7:15 PM 57.2 °F - 24.8 °F 29% 30.00 in 10.0 mi WSW 5.8 mph - N/A   Clear
7:35 PM 54.0 °F - 25.0 °F 33% 30.00 in 10.0 mi SW 4.6 mph - N/A   Clear
7:55 PM 50.2 °F - 25.2 °F 38% 30.00 in 10.0 mi WSW 4.6 mph - N/A   Clear
8:15 PM 49.6 °F - 25.2 °F 38% 30.01 in 10.0 mi WNW 3.5 mph - N/A   Clear
8:35 PM 50.5 °F - 24.6 °F 36% 30.01 in 10.0 mi WNW 3.5 mph - N/A   Clear
8:55 PM 45.9 °F 43.6 °F 24.6 °F 43% 30.00 in 10.0 mi West 4.6 mph - N/A   Clear
9:15 PM 48.4 °F - 25.0 °F 40% 30.00 in 10.0 mi Calm Calm - N/A   Clear
9:35 PM 47.3 °F - 23.7 °F 40% 30.00 in 10.0 mi Calm Calm - N/A   Clear
9:55 PM 46.2 °F - 23.5 °F 41% 29.99 in 10.0 mi Calm Calm - N/A   Clear
10:15 PM 42.4 °F - 22.8 °F 46% 29.99 in 10.0 mi Calm Calm - N/A   Clear
10:35 PM 48.0 °F - 22.8 °F 37% 29.99 in 10.0 mi South 3.5 mph - N/A   Clear
10:55 PM 48.6 °F - 21.0 °F 34% 29.98 in 10.0 mi South 4.6 mph - N/A   Clear
11:15 PM 44.8 °F 41.6 °F 21.0 °F 39% 29.98 in 10.0 mi South 5.8 mph - N/A   Clear
11:35 PM 40.3 °F 35.5 °F 21.4 °F 47% 29.98 in 10.0 mi South 6.9 mph - N/A   Clear
11:55 PM 37.6 °F 31.6 °F 21.2 °F 52% 29.98 in 10.0 mi South 8.1 mph - N/A   Clear